sat.trackr.live / text

‹ back to catalog

STARLINK-1554

NORAD 46055 · 2020-055AE

PAYLOAD ACTIVE UNKNOWN

§ Identity

Operator
Country
US
Launch date
2020-08-07
Launch site
AFETR
Launch vehicle
Mass (kg)
RCS (m²)

Purposes: comms

External: N2YO · Heavens-Above · Gunter

§ Orbital elements

Epoch: 2026-05-25T04:34:22.395072Z

Period
94.01 min
Inclination
53.1598°
Eccentricity
0.0001068
Mean motion
15.31697810 rev/d
Perigee alt
470.0 km
Apogee alt
471.5 km
Semi-major
6,848.9 km
B*
3.4746e-5
RAAN
118.2267°
Arg perigee
85.5676°
Mean anomaly
274.5447°
Rev number
32,079

§ Raw data

STARLINK-15541 46055U 20055AE  26145.19053698  .00000713  00000+0  34746-4 0  99992 46055  53.1598 118.2267 0001068  85.5676 274.5447 15.31697810320797

JSON: /api/v1/satellites/46055 · /tle

For live sub-satellite position, see the globe view (requires WebGL).

§ Visibility from observer

Set your observer location to see the next 7 days of passes ≥ 10°. The values pass through the URL so the page stays shareable.

No JS? Fill the form by hand. The geolocation button needs JavaScript.